Weather History for Upington, South Africa

Change the Weather History Date:

Sunday, August 4, 2013

  Actual Average Record
Temperature  
Mean Temperature 61 °F -  
Max Temperature 76 °F 73 °F 84 °F (2005)
Min Temperature 46 °F 41 °F 28 °F (2000)
Degree Days  
Heating Degree Days 4    
Growing Degree Days 11 (Base 50)    
Moisture  
Dew Point 30 °F    
Average Humidity 32    
Maximum Humidity 54    
Minimum Humidity 8    
Precipitation  
Precipitation 0.00 in 0.01 in - ()
Sea Level Pressure  
Sea Level Pressure 30.26 in    
Wind  
Wind Speed 4 mph ()    
Max Wind Speed 9 mph    
Max Gust Speed -    
Visibility 6.2 miles    
Events      
Averages and records for this station are not official NWS values.
T = Trace of Precipitation, MM = Missing Value Source: Averaged Metar Reports

Daily Weather History Graph

Daily Weather History Graph

Search for Another Location

Airport:

Trip Planner

Search our weather history database for the weather conditions in past years. The results will help you decide how hot, cold, wet, or windy it might be!

Date:

Astronomy

Aug. 04, 2013 Rise Set
Actual Time 7:15 AM SAST 6:06 PM SAST
Civil Twilight 6:50 AM SAST 6:31 PM SAST
Nautical Twilight 6:22 AM SAST 6:59 PM SAST
Astronomical Twilight 5:54 AM SAST 7:27 PM SAST
Moon 5:12 AM SAST (8/4) 4:10 PM SAST (8/4)
Length of Visible Light 11h 40m
Length of Day
10h 51m
Waning Crescent, 6% of the Moon is Illuminated
Aug 4
Waning Crescent
Aug 6
New
Aug 14
First Quarter
Aug 21
Full
Aug 28
Last Quarter

Hourly Weather History & Observations

Time (SAST) Temp. Dew Point Humidity Pressure Visibility Wind Dir Wind Speed Gust Speed Precip Events Conditions
12:00 AM 53.6 °F 30.2 °F 41% 30.27 in - North 6.9 mph - N/A   Unknown
1:00 AM 51.8 °F 30.2 °F 44% 30.27 in - NE 2.3 mph - N/A   Clear
2:00 AM 52 °F 30 °F 31%  in 25 mi NNE 2.3 mph - -   Mostly Cloudy
2:00 AM 51.8 °F 30.2 °F 44% 30.27 in - NNE 2.3 mph - N/A   Clear
3:00 AM 50.0 °F 32.0 °F 50% 30.27 in - Calm Calm - N/A   Clear
4:00 AM 50.0 °F 32.0 °F 50% 30.27 in - East 6.9 mph - N/A   Clear
5:00 AM 51 °F 31 °F 35%  in 25 mi East 8.1 mph - -   Mostly Cloudy
5:00 AM 50.0 °F 32.0 °F 50% 30.24 in - East 6.9 mph - N/A   Clear
6:00 AM 48.2 °F 32.0 °F 54% 30.24 in - ENE 9.2 mph - N/A   Clear
7:00 AM 50.0 °F 30.2 °F 47% 30.27 in - ENE 9.2 mph - N/A   Clear
8:00 AM 50.0 °F 32.0 °F 50% 30.27 in - East 4.6 mph - N/A   Clear
8:15 AM 53.6 °F 32.0 °F 44% 30.30 in - East 6.9 mph - N/A   Clear
9:00 AM 57.2 °F 32.0 °F 38% 30.30 in - ENE 3.5 mph - N/A   Clear
9:49 AM 62.6 °F 32.0 °F 32% 30.33 in - North 2.3 mph - N/A   Clear
10:00 AM 62.6 °F 32.0 °F 32% 30.33 in - NNE 3.5 mph - N/A   Clear
10:25 AM 66.2 °F 32.0 °F 28% 30.30 in - NNE 3.5 mph - N/A   Clear
11:00 AM 70 °F 30 °F 13%  in 25 mi NNE 4.6 mph - -   Scattered Clouds
11:00 AM 69.8 °F 30.2 °F 23% 30.30 in - NNE 4.6 mph - N/A   Clear
12:00 PM 71.6 °F 28.4 °F 20% 30.30 in - NW 3.5 mph - N/A   Clear
1:00 PM 71.6 °F 28.4 °F 20% 30.27 in 6.2 mi NW 2.3 mph - N/A   Scattered Clouds
2:00 PM 74 °F 25 °F 8%  in 25 mi West 6.9 mph - -   Scattered Clouds
2:00 PM 73.4 °F 26.6 °F 18% 30.24 in 6.2 mi West 6.9 mph - N/A   Partly Cloudy
3:00 PM 75.2 °F 28.4 °F 18% 30.21 in 6.2 mi SSW 3.5 mph - N/A   Partly Cloudy
4:00 PM 73.4 °F 28.4 °F 19% 30.21 in - WNW 5.8 mph - N/A   Clear
5:00 PM 73.4 °F 26.6 °F 18% 30.21 in - SW 3.5 mph - N/A   Clear
6:00 PM 69.8 °F 26.6 °F 20% 30.21 in - West 1.2 mph - N/A   Clear
7:00 PM 60.8 °F 28.4 °F 29% 30.21 in - SSW 2.3 mph - N/A   Clear
8:00 PM 60 °F 27 °F 17%  in 25 mi ESE 3.5 mph - -  
8:00 PM 59.0 °F 28.4 °F 31% 30.24 in - ESE 2.3 mph - N/A   Clear
9:00 PM 59.0 °F 28.4 °F 31% 30.24 in - East 3.5 mph - N/A   Unknown
10:00 PM 51.8 °F 28.4 °F 41% 30.27 in - Calm Calm - N/A   Unknown
11:00 PM 52 °F 28 °F 27%  in - Calm Calm - -  
11:00 PM 51.8 °F 28.4 °F 41% 30.27 in - Calm Calm - N/A   Unknown